Location: Newark
(42.8481°N, 0.4872°E)
Time: 08:48:43
(UTC+00:00)

SR - Pass Details

Date: 05 November 2020
Orbit: 579 x 876 km, 66.7° (Epoch: 29 November)

Event Time Altitude Azimuth Distance (km) Brightness Sun altitude
Rises 09:34:54 0° 323° (NW) 3,119 ? 24.5°
Reaches altitude 10° 09:37:14 10° 317° (NW) 2,242 ? 24.7°
Maximum altitude 09:42:09 47° 245° (WSW) 1,030 ? 25.2°
Drops below altitude 10° 09:47:26 10° 173° (S) 2,410 ? 25.7°
Sets 09:50:02 0° 168° (SSE) 3,375 ? 25.9°
